Weather History for KTOP - May, 2012

Change the Weather History Date:

Monday, May 14, 2012

  Actual Average Record
Temperature  
Mean Temperature 66 °F 64 °F  
Max Temperature 81 °F 75 °F 95 °F (1941)
Min Temperature 50 °F 54 °F 33 °F (1888)
Degree Days  
Heating Degree Days 0 3  
Month to date heating degree days 10 64  
Since 1 July heating degree days 3780 4981  
Cooling Degree Days 1 3  
Month to date cooling degree days 72 28  
Year to date cooling degree days 167 56  
Growing Degree Days 16 (Base 50)    
Moisture  
Dew Point 50 °F    
Average Humidity 65    
Maximum Humidity 100    
Minimum Humidity 30    
Precipitation  
Precipitation 0.00 in 0.15 in 2.48 in (1909)
Month to date precipitation 0.95 2.17  
Year to date precipitation 9.62 10.37  
Snow  
Snow 0.00 in 0.00 in 0.00 in ()
Month to date snowfall 0.0 0.0  
Year to date snowfall 3.0 11.3  
Since 1 July snowfall 3.1 17.8  
Snow Depth 0.00 in    
Sea Level Pressure  
Sea Level Pressure 30.11 in    
Wind  
Wind Speed 3 mph (South)    
Max Wind Speed 8 mph    
Max Gust Speed 12 mph    
Visibility 9 miles    
Events      
T = Trace of Precipitation, MM = Missing Value Source: NWS Daily Summary

Daily Weather History Graph

Daily Weather History Graph

Search for Another Location

Airport or City:

Trip Planner

Search our weather history database for the weather conditions in past years. The results will help you decide how hot, cold, wet, or windy it might be!

Date:

Astronomy

May. 14, 2012 Rise Set
Actual Time 6:09 AM CDT 8:28 PM CDT
Civil Twilight 5:39 AM CDT 8:58 PM CDT
Nautical Twilight 5:02 AM CDT 9:35 PM CDT
Astronomical Twilight 4:22 AM CDT 10:16 PM CDT
Moon 2:42 AM CDT (5/14) 2:52 PM CDT (5/14)
Length of Visible Light 15h 18m
Length of Day
14h 18m
Waning Crescent, 32% of the Moon is Illuminated
May 14
Waning Crescent
May 20
New
May 28
First Quarter
Jun 4
Full
Jun 11
Last Quarter

Hourly Weather History & Observations

Time (CDT) Temp. Dew Point Humidity Pressure Visibility Wind Dir Wind Speed Gust Speed Precip Events Conditions
12:53 AM 55.9 °F 53.1 °F 90% 30.16 in 10.0 mi Calm Calm - N/A   Clear
1:53 AM 54.0 °F 52.0 °F 93% 30.15 in 9.0 mi Calm Calm - N/A   Clear
2:53 AM 53.1 °F 51.1 °F 93% 30.15 in 8.0 mi Calm Calm - N/A   Clear
3:53 AM 53.1 °F 51.1 °F 93% 30.15 in 8.0 mi Calm Calm - N/A   Clear
4:53 AM 53.1 °F 51.1 °F 93% 30.15 in 9.0 mi Calm Calm - N/A   Clear
5:53 AM 51.1 °F 50.0 °F 96% 30.15 in 4.0 mi Calm Calm - N/A   Mostly Cloudy
6:53 AM 52.0 °F 51.1 °F 97% 30.17 in 6.0 mi Calm Calm - N/A   Partly Cloudy
7:53 AM 57.9 °F 54.0 °F 87% 30.18 in 10.0 mi Calm Calm - N/A   Mostly Cloudy
8:53 AM 61.0 °F 55.0 °F 81% 30.18 in 10.0 mi Calm Calm - N/A   Clear
9:53 AM 68.0 °F 55.0 °F 63% 30.18 in 10.0 mi Calm Calm - N/A   Clear
10:53 AM 73.0 °F 52.0 °F 48% 30.17 in 10.0 mi SW 3.5 mph - N/A   Clear
11:53 AM 75.0 °F 48.0 °F 38% 30.17 in 10.0 mi SW 4.6 mph - N/A   Clear
12:53 PM 75.9 °F 46.9 °F 36% 30.14 in 10.0 mi SSE 5.8 mph - N/A   Partly Cloudy
1:53 PM 77.0 °F 46.9 °F 34% 30.11 in 10.0 mi West 4.6 mph - N/A   Partly Cloudy
2:53 PM 78.1 °F 48.9 °F 36% 30.09 in 10.0 mi Calm Calm - N/A   Clear
3:53 PM 80.1 °F 46.9 °F 31% 30.06 in 10.0 mi Variable 3.5 mph - N/A   Clear
4:53 PM 79.0 °F 48.0 °F 34% 30.05 in 10.0 mi South 5.8 mph - N/A   Clear
5:53 PM 78.1 °F 48.9 °F 36% 30.04 in 10.0 mi SE 4.6 mph - N/A   Clear
6:53 PM 78.1 °F 48.0 °F 35% 30.03 in 10.0 mi South 4.6 mph - N/A   Clear
7:53 PM 73.9 °F 51.1 °F 45% 30.03 in 10.0 mi SE 5.8 mph - N/A   Partly Cloudy
8:53 PM 70.0 °F 52.0 °F 53% 30.04 in 10.0 mi SSE 4.6 mph - N/A   Clear
9:53 PM 69.1 °F 50.0 °F 51% 30.05 in 10.0 mi Calm Calm - N/A   Clear
10:53 PM 66.9 °F 48.9 °F 52% 30.05 in 10.0 mi South 4.6 mph - N/A   Clear
11:53 PM 64.9 °F 50.0 °F 58% 30.04 in 10.0 mi South 5.8 mph - N/A   Clear